Time,TemperatureF,DewpointF,PressureIn,WindDirection,WindDirectionDegrees,WindSpeedMPH,WindSpeedGustMPH,Humidity,HourlyPrecipIn,Conditions,Clouds,dailyrainin,SoftwareType,DateUTC
2013-09-14 00:01:00,63.6,59.7,29.73,NNE,22,0.0,1.0,87,0.00,,,0.00,LWC V2.10 B1702,2013-09-14 04:01:00,
2013-09-14 00:03:00,63.6,59.7,29.73,North,5,1.0,3.0,87,0.00,,,0.00,LWC V2.10 B1702,2013-09-14 04:03:00,
2013-09-14 00:08:00,63.5,59.6,29.73,NNE,21,0.0,2.0,87,0.00,,,0.00,LWC V2.10 B1702,2013-09-14 04:08:00,
2013-09-14 00:13:00,63.4,59.5,29.73,North,5,0.0,1.0,87,0.00,,,0.00,LWC V2.10 B1702,2013-09-14 04:13:00,
2013-09-14 00:18:00,63.2,59.3,29.73,NNE,15,0.0,2.0,87,0.00,,,0.00,LWC V2.10 B1702,2013-09-14 04:18:00,
2013-09-14 00:23:00,63.2,59.3,29.73,NNE,19,0.0,2.0,87,0.00,,,0.00,LWC V2.10 B1702,2013-09-14 04:23:00,
2013-09-14 00:28:00,63.1,59.2,29.73,NE,38,0.0,1.0,87,0.00,,,0.00,LWC V2.10 B1702,2013-09-14 04:28:00,
2013-09-14 00:33:00,63.1,59.2,29.73,NE,49,0.0,2.0,87,0.00,,,0.00,LWC V2.10 B1702,2013-09-14 04:33:00,
2013-09-14 00:38:00,63.1,58.8,29.74,North,355,0.0,3.0,86,0.00,,,0.00,LWC V2.10 B1702,2013-09-14 04:38:00,
2013-09-14 00:43:00,63.1,58.8,29.74,NNE,27,0.0,3.0,86,0.00,,,0.00,LWC V2.10 B1702,2013-09-14 04:43:00,
2013-09-14 00:48:00,63.1,58.8,29.74,North,9,1.0,3.0,86,0.00,,,0.00,LWC V2.10 B1702,2013-09-14 04:48:00,
2013-09-14 00:53:00,63.1,58.5,29.74,North,11,0.0,2.0,85,0.00,,,0.00,LWC V2.10 B1702,2013-09-14 04:53:00,
2013-09-14 00:58:00,63.1,58.5,29.74,NNW,328,1.0,2.0,85,0.00,,,0.00,LWC V2.10 B1702,2013-09-14 04:58:00,
2013-09-14 01:03:00,63.1,58.5,29.75,North,0,0.0,1.0,85,0.00,,,0.00,LWC V2.10 B1702,2013-09-14 05:03:00,
2013-09-14 01:08:00,63.0,58.1,29.75,North,11,0.0,3.0,84,0.00,,,0.00,LWC V2.10 B1702,2013-09-14 05:08:00,
2013-09-14 01:13:00,63.0,58.4,29.75,NNE,17,0.0,3.0,85,0.00,,,0.00,LWC V2.10 B1702,2013-09-14 05:13:00,
2013-09-14 01:18:00,63.0,58.4,29.75,NE,34,0.0,0.0,85,0.00,,,0.00,LWC V2.10 B1702,2013-09-14 05:18:00,
2013-09-14 01:23:00,62.9,58.3,29.75,NE,53,0.0,3.0,85,0.00,,,0.00,LWC V2.10 B1702,2013-09-14 05:23:00,
2013-09-14 01:28:00,62.9,58.0,29.75,NNE,15,2.0,2.0,84,0.00,,,0.00,LWC V2.10 B1702,2013-09-14 05:28:00,
2013-09-14 01:33:00,62.9,58.3,29.75,NNE,22,1.0,2.0,85,0.00,,,0.00,LWC V2.10 B1702,2013-09-14 05:33:00,
2013-09-14 01:38:00,62.8,57.9,29.75,North,355,0.0,2.0,84,0.00,,,0.00,LWC V2.10 B1702,2013-09-14 05:38:00,
2013-09-14 01:43:00,62.8,57.9,29.75,NNE,25,0.0,2.0,84,0.00,,,0.00,LWC V2.10 B1702,2013-09-14 05:43:00,
2013-09-14 01:48:00,62.7,57.8,29.76,NNE,25,0.0,0.0,84,0.00,,,0.00,LWC V2.10 B1702,2013-09-14 05:48:00,
2013-09-14 01:53:00,62.7,58.1,29.76,NNE,24,0.0,1.0,85,0.00,,,0.00,LWC V2.10 B1702,2013-09-14 05:53:00,
2013-09-14 01:58:00,62.7,58.1,29.76,NNE,27,0.0,0.0,85,0.00,,,0.00,LWC V2.10 B1702,2013-09-14 05:58:00,
2013-09-14 02:03:00,62.6,58.0,29.76,NNE,22,0.0,4.0,85,0.00,,,0.00,LWC V2.10 B1702,2013-09-14 06:03:00,
2013-09-14 02:08:00,62.6,57.7,29.76,NNE,24,0.0,0.0,84,0.00,,,0.00,LWC V2.10 B1702,2013-09-14 06:08:00,
2013-09-14 02:13:00,62.5,57.6,29.76,NNE,25,1.0,1.0,84,0.00,,,0.00,LWC V2.10 B1702,2013-09-14 06:13:00,
2013-09-14 02:18:00,62.5,57.9,29.77,NNE,16,1.0,1.0,85,0.00,,,0.00,LWC V2.10 B1702,2013-09-14 06:18:00,
2013-09-14 02:23:00,62.5,57.9,29.77,NNE,28,0.0,1.0,85,0.00,,,0.00,LWC V2.10 B1702,2013-09-14 06:23:00,
2013-09-14 02:28:00,62.5,57.9,29.77,North,5,0.0,0.0,85,0.00,,,0.00,LWC V2.10 B1702,2013-09-14 06:28:00,
2013-09-14 02:33:00,62.5,57.9,29.77,NNE,20,0.0,2.0,85,0.00,,,0.00,LWC V2.10 B1702,2013-09-14 06:33:00,
2013-09-14 02:38:00,62.4,57.8,29.77,NNE,20,0.0,0.0,85,0.00,,,0.00,LWC V2.10 B1702,2013-09-14 06:38:00,
2013-09-14 02:43:00,62.4,57.8,29.77,NNE,19,2.0,2.0,85,0.00,,,0.00,LWC V2.10 B1702,2013-09-14 06:43:00,
2013-09-14 02:48:00,62.3,57.7,29.77,North,0,0.0,2.0,85,0.00,,,0.00,LWC V2.10 B1702,2013-09-14 06:48:00,
2013-09-14 02:53:00,62.3,57.7,29.77,North,10,0.0,0.0,85,0.00,,,0.00,LWC V2.10 B1702,2013-09-14 06:53:00,
2013-09-14 02:58:00,62.2,57.6,29.77,NE,34,0.0,1.0,85,0.00,,,0.00,LWC V2.10 B1702,2013-09-14 06:58:00,
2013-09-14 03:03:00,62.2,57.6,29.77,NNE,30,0.0,0.0,85,0.00,,,0.00,LWC V2.10 B1702,2013-09-14 07:03:00,
2013-09-14 03:08:00,62.1,57.5,29.77,North,5,0.0,1.0,85,0.00,,,0.00,LWC V2.10 B1702,2013-09-14 07:08:00,
2013-09-14 03:13:00,62.0,57.1,29.77,NNE,30,0.0,0.0,84,0.00,,,0.00,LWC V2.10 B1702,2013-09-14 07:13:00,
2013-09-14 03:18:00,61.9,57.0,29.77,NNE,32,0.0,0.0,84,0.00,,,0.00,LWC V2.10 B1702,2013-09-14 07:18:00,
2013-09-14 03:23:00,61.8,57.2,29.76,NNE,18,0.0,1.0,85,0.00,,,0.00,LWC V2.10 B1702,2013-09-14 07:23:00,
2013-09-14 03:28:00,61.7,57.1,29.77,NNE,13,0.0,0.0,85,0.00,,,0.00,LWC V2.10 B1702,2013-09-14 07:28:00,
2013-09-14 03:33:00,61.5,56.9,29.77,SSW,197,0.0,0.0,85,0.00,,,0.00,LWC V2.10 B1702,2013-09-14 07:33:00,
2013-09-14 03:38:00,61.4,56.8,29.77,SSW,197,0.0,0.0,85,0.00,,,0.00,LWC V2.10 B1702,2013-09-14 07:38:00,
2013-09-14 03:43:00,61.3,57.1,29.77,SSW,197,0.0,0.0,86,0.00,,,0.00,LWC V2.10 B1702,2013-09-14 07:43:00,
2013-09-14 03:48:00,61.1,56.9,29.77,SSW,197,0.0,0.0,86,0.00,,,0.00,LWC V2.10 B1702,2013-09-14 07:48:00,
2013-09-14 03:53:00,60.9,56.7,29.77,SSW,197,0.0,0.0,86,0.00,,,0.00,LWC V2.10 B1702,2013-09-14 07:53:00,
2013-09-14 03:58:00,60.8,56.6,29.77,SSW,197,0.0,0.0,86,0.00,,,0.00,LWC V2.10 B1702,2013-09-14 07:58:00,
2013-09-14 04:03:00,60.7,56.5,29.77,SSW,198,0.0,0.0,86,0.00,,,0.00,LWC V2.10 B1702,2013-09-14 08:03:00,
2013-09-14 04:08:00,60.6,56.7,29.77,SSW,197,0.0,0.0,87,0.00,,,0.00,LWC V2.10 B1702,2013-09-14 08:08:00,
2013-09-14 04:13:00,60.6,56.7,29.77,SSW,197,0.0,0.0,87,0.00,,,0.00,LWC V2.10 B1702,2013-09-14 08:13:00,
2013-09-14 04:18:00,60.6,56.7,29.78,SSW,198,0.0,0.0,87,0.00,,,0.00,LWC V2.10 B1702,2013-09-14 08:18:00,
2013-09-14 04:23:00,60.7,56.8,29.78,NNW,348,0.0,0.0,87,0.00,,,0.00,LWC V2.10 B1702,2013-09-14 08:23:00,
2013-09-14 04:28:00,60.7,56.8,29.78,NNW,348,0.0,1.0,87,0.00,,,0.00,LWC V2.10 B1702,2013-09-14 08:28:00,
2013-09-14 04:33:00,60.7,56.8,29.78,NNW,348,0.0,1.0,87,0.00,,,0.00,LWC V2.10 B1702,2013-09-14 08:33:00,
2013-09-14 04:38:00,60.9,57.0,29.78,NNE,18,0.0,0.0,87,0.00,,,0.00,LWC V2.10 B1702,2013-09-14 08:38:00,
2013-09-14 04:43:00,60.9,57.0,29.78,NNE,17,0.0,0.0,87,0.00,,,0.00,LWC V2.10 B1702,2013-09-14 08:43:00,
2013-09-14 04:48:00,61.0,56.8,29.78,North,355,0.0,1.0,86,0.00,,,0.00,LWC V2.10 B1702,2013-09-14 08:48:00,
2013-09-14 04:53:00,61.0,56.8,29.78,NNE,32,0.0,0.0,86,0.00,,,0.00,LWC V2.10 B1702,2013-09-14 08:53:00,
2013-09-14 04:58:00,61.0,56.8,29.78,North,9,0.0,1.0,86,0.00,,,0.00,LWC V2.10 B1702,2013-09-14 08:58:00,
2013-09-14 05:03:00,61.0,56.5,29.78,North,9,0.0,0.0,85,0.00,,,0.00,LWC V2.10 B1702,2013-09-14 09:03:00,
2013-09-14 05:08:00,61.0,56.5,29.78,North,9,0.0,0.0,85,0.00,,,0.00,LWC V2.10 B1702,2013-09-14 09:08:00,
2013-09-14 05:13:00,60.9,56.4,29.79,North,9,0.0,1.0,85,0.00,,,0.00,LWC V2.10 B1702,2013-09-14 09:13:00,
2013-09-14 05:18:00,60.8,56.3,29.79,North,10,0.0,0.0,85,0.00,,,0.00,LWC V2.10 B1702,2013-09-14 09:18:00,
2013-09-14 05:23:00,60.7,56.2,29.79,North,11,0.0,0.0,85,0.00,,,0.00,LWC V2.10 B1702,2013-09-14 09:23:00,
2013-09-14 05:28:00,60.6,56.1,29.80,North,11,0.0,0.0,85,0.00,,,0.00,LWC V2.10 B1702,2013-09-14 09:28:00,
2013-09-14 05:33:00,60.6,56.4,29.80,North,11,0.0,0.0,86,0.00,,,0.00,LWC V2.10 B1702,2013-09-14 09:33:00,
2013-09-14 05:38:00,60.6,56.4,29.80,North,11,0.0,0.0,86,0.00,,,0.00,LWC V2.10 B1702,2013-09-14 09:38:00,
2013-09-14 05:43:00,60.6,56.4,29.80,North,10,0.0,0.0,86,0.00,,,0.00,LWC V2.10 B1702,2013-09-14 09:43:00,
2013-09-14 05:48:00,60.6,56.4,29.80,North,10,0.0,0.0,86,0.00,,,0.00,LWC V2.10 B1702,2013-09-14 09:48:00,
2013-09-14 05:53:00,60.6,56.4,29.80,North,10,0.0,0.0,86,0.00,,,0.00,LWC V2.10 B1702,2013-09-14 09:53:00,
2013-09-14 05:58:00,60.6,56.4,29.81,NNE,13,0.0,1.0,86,0.00,,,0.00,LWC V2.10 B1702,2013-09-14 09:58:00,
2013-09-14 06:03:00,60.6,56.4,29.81,North,350,0.0,2.0,86,0.00,,,0.00,LWC V2.10 B1702,2013-09-14 10:03:00,
2013-09-14 06:08:00,60.6,56.1,29.81,NNE,17,1.0,2.0,85,0.00,,,0.00,LWC V2.10 B1702,2013-09-14 10:08:00,
2013-09-14 06:13:00,60.6,56.1,29.81,NNE,16,0.0,1.0,85,0.00,,,0.00,LWC V2.10 B1702,2013-09-14 10:13:00,
2013-09-14 06:18:00,60.6,56.1,29.81,NNE,16,0.0,0.0,85,0.00,,,0.00,LWC V2.10 B1702,2013-09-14 10:18:00,
2013-09-14 06:23:00,60.5,56.0,29.82,NNE,16,0.0,1.0,85,0.00,,,0.00,LWC V2.10 B1702,2013-09-14 10:23:00,
2013-09-14 06:28:00,60.4,55.9,29.82,NNE,16,0.0,0.0,85,0.00,,,0.00,LWC V2.10 B1702,2013-09-14 10:28:00,
2013-09-14 06:33:00,60.4,55.9,29.82,NNE,16,0.0,1.0,85,0.00,,,0.00,LWC V2.10 B1702,2013-09-14 10:33:00,
2013-09-14 06:38:00,60.2,55.7,29.82,NNE,16,0.0,0.0,85,0.00,,,0.00,LWC V2.10 B1702,2013-09-14 10:38:00,
2013-09-14 06:43:00,60.2,56.0,29.83,NNE,16,0.0,0.0,86,0.00,,,0.00,LWC V2.10 B1702,2013-09-14 10:43:00,
2013-09-14 06:48:00,60.1,55.9,29.83,NNW,346,1.0,1.0,86,0.00,,,0.00,LWC V2.10 B1702,2013-09-14 10:48:00,
2013-09-14 06:53:00,60.0,55.8,29.83,NW,318,0.0,1.0,86,0.00,,,0.00,LWC V2.10 B1702,2013-09-14 10:53:00,
2013-09-14 06:58:00,60.0,55.8,29.83,SE,134,0.0,0.0,86,0.00,,,0.00,LWC V2.10 B1702,2013-09-14 10:58:00,
2013-09-14 07:03:00,59.9,55.7,29.84,North,5,0.0,1.0,86,0.00,,,0.00,LWC V2.10 B1702,2013-09-14 11:03:00,
2013-09-14 07:08:00,59.9,55.7,29.84,NNE,31,0.0,1.0,86,0.00,,,0.00,LWC V2.10 B1702,2013-09-14 11:08:00,
2013-09-14 07:13:00,59.9,55.7,29.84,North,355,0.0,0.0,86,0.00,,,0.00,LWC V2.10 B1702,2013-09-14 11:13:00,
2013-09-14 07:18:00,60.0,55.8,29.84,North,9,1.0,1.0,86,0.00,,,0.00,LWC V2.10 B1702,2013-09-14 11:18:00,
2013-09-14 07:23:00,60.0,55.8,29.84,NNW,335,1.0,1.0,86,0.00,,,0.00,LWC V2.10 B1702,2013-09-14 11:23:00,
2013-09-14 07:28:00,60.0,55.8,29.84,NNW,340,0.0,0.0,86,0.00,,,0.00,LWC V2.10 B1702,2013-09-14 11:28:00,
2013-09-14 07:33:00,59.9,55.4,29.84,NNE,17,0.0,1.0,85,0.00,,,0.00,LWC V2.10 B1702,2013-09-14 11:33:00,
2013-09-14 07:38:00,59.9,55.7,29.84,NNE,13,0.0,1.0,86,0.00,,,0.00,LWC V2.10 B1702,2013-09-14 11:38:00,
2013-09-14 07:43:00,59.8,55.6,29.84,NNE,17,0.0,0.0,86,0.00,,,0.00,LWC V2.10 B1702,2013-09-14 11:43:00,
2013-09-14 07:48:00,59.9,55.7,29.84,NNE,17,0.0,1.0,86,0.00,,,0.00,LWC V2.10 B1702,2013-09-14 11:48:00,
2013-09-14 07:53:00,59.9,55.7,29.84,NNE,23,0.0,0.0,86,0.00,,,0.00,LWC V2.10 B1702,2013-09-14 11:53:00,
2013-09-14 07:58:00,59.9,55.7,29.85,North,0,0.0,1.0,86,0.00,,,0.00,LWC V2.10 B1702,2013-09-14 11:58:00,
2013-09-14 08:03:00,60.0,55.5,29.85,NNW,348,0.0,1.0,85,0.00,,,0.00,LWC V2.10 B1702,2013-09-14 12:03:00,
2013-09-14 08:08:00,60.2,56.0,29.85,NNW,347,0.0,0.0,86,0.00,,,0.00,LWC V2.10 B1702,2013-09-14 12:08:00,
2013-09-14 08:13:00,60.4,56.2,29.85,NNW,348,0.0,0.0,86,0.00,,,0.00,LWC V2.10 B1702,2013-09-14 12:13:00,
2013-09-14 08:18:00,60.5,56.3,29.85,NNW,348,0.0,0.0,86,0.00,,,0.00,LWC V2.10 B1702,2013-09-14 12:18:00,
2013-09-14 08:23:00,60.6,56.1,29.85,NNW,343,0.0,2.0,85,0.00,,,0.00,LWC V2.10 B1702,2013-09-14 12:23:00,
2013-09-14 08:28:00,60.8,56.3,29.85,NNW,347,0.0,1.0,85,0.00,,,0.00,LWC V2.10 B1702,2013-09-14 12:28:00,
2013-09-14 08:33:00,61.0,56.8,29.85,NNW,329,0.0,1.0,86,0.00,,,0.00,LWC V2.10 B1702,2013-09-14 12:33:00,
2013-09-14 08:38:00,61.3,56.7,29.85,North,5,0.0,0.0,85,0.00,,,0.00,LWC V2.10 B1702,2013-09-14 12:38:00,
2013-09-14 08:43:00,61.4,56.8,29.85,North,5,0.0,2.0,85,0.00,,,0.00,LWC V2.10 B1702,2013-09-14 12:43:00,
2013-09-14 08:48:00,61.7,56.8,29.85,WNW,297,0.0,1.0,84,0.00,,,0.00,LWC V2.10 B1702,2013-09-14 12:48:00,
2013-09-14 08:53:00,62.0,56.8,29.86,NNW,333,0.0,0.0,83,0.00,,,0.00,LWC V2.10 B1702,2013-09-14 12:53:00,
2013-09-14 08:58:00,62.1,56.9,29.86,North,355,0.0,2.0,83,0.00,,,0.00,LWC V2.10 B1702,2013-09-14 12:58:00,
2013-09-14 09:03:00,62.3,57.1,29.86,WNW,288,0.0,0.0,83,0.00,,,0.00,LWC V2.10 B1702,2013-09-14 13:03:00,
2013-09-14 09:08:00,62.3,56.7,29.86,NW,323,0.0,2.0,82,0.00,,,0.00,LWC V2.10 B1702,2013-09-14 13:08:00,
2013-09-14 09:13:00,62.4,56.5,29.87,NW,312,0.0,0.0,81,0.00,,,0.00,LWC V2.10 B1702,2013-09-14 13:13:00,
2013-09-14 09:18:00,62.5,56.9,29.87,NNW,331,0.0,1.0,82,0.00,,,0.00,LWC V2.10 B1702,2013-09-14 13:18:00,
2013-09-14 09:23:00,62.7,57.5,29.87,NNW,331,0.0,4.0,83,0.00,,,0.00,LWC V2.10 B1702,2013-09-14 13:23:00,
2013-09-14 09:28:00,63.0,57.4,29.87,NE,40,0.0,2.0,82,0.00,,,0.00,LWC V2.10 B1702,2013-09-14 13:28:00,
2013-09-14 09:33:00,63.4,57.5,29.87,NW,317,0.0,1.0,81,0.00,,,0.00,LWC V2.10 B1702,2013-09-14 13:33:00,
2013-09-14 09:38:00,63.7,57.4,29.87,North,5,0.0,2.0,80,0.00,,,0.00,LWC V2.10 B1702,2013-09-14 13:38:00,
2013-09-14 09:43:00,64.3,58.0,29.87,NE,39,0.0,1.0,80,0.00,,,0.00,LWC V2.10 B1702,2013-09-14 13:43:00,
2013-09-14 09:48:00,64.9,58.2,29.88,NNW,343,0.0,3.0,79,0.00,,,0.00,LWC V2.10 B1702,2013-09-14 13:48:00,
2013-09-14 09:53:00,65.3,58.6,29.88,NNW,332,1.0,2.0,79,0.00,,,0.00,LWC V2.10 B1702,2013-09-14 13:53:00,
2013-09-14 09:58:00,65.6,58.2,29.88,NNW,331,0.0,3.0,77,0.00,,,0.00,LWC V2.10 B1702,2013-09-14 13:58:00,
2013-09-14 10:03:00,66.0,58.6,29.88,NW,325,1.0,1.0,77,0.00,,,0.00,LWC V2.10 B1702,2013-09-14 14:03:00,
2013-09-14 10:08:00,66.2,58.4,29.88,NNW,331,0.0,0.0,76,0.00,,,0.00,LWC V2.10 B1702,2013-09-14 14:08:00,
2013-09-14 10:13:00,66.4,58.2,29.88,NNW,333,0.0,0.0,75,0.00,,,0.00,LWC V2.10 B1702,2013-09-14 14:13:00,
2013-09-14 10:18:00,66.9,58.7,29.88,NW,321,0.0,2.0,75,0.00,,,0.00,LWC V2.10 B1702,2013-09-14 14:18:00,
2013-09-14 10:23:00,66.9,59.1,29.88,NNE,14,0.0,3.0,76,0.00,,,0.00,LWC V2.10 B1702,2013-09-14 14:23:00,
2013-09-14 10:28:00,66.9,58.3,29.88,NW,325,0.0,0.0,74,0.00,,,0.00,LWC V2.10 B1702,2013-09-14 14:28:00,
2013-09-14 10:33:00,67.1,58.9,29.88,NNE,16,0.0,1.0,75,0.00,,,0.00,LWC V2.10 B1702,2013-09-14 14:33:00,
2013-09-14 10:38:00,67.5,58.9,29.88,NW,315,1.0,1.0,74,0.00,,,0.00,LWC V2.10 B1702,2013-09-14 14:38:00,
2013-09-14 10:43:00,67.2,59.0,29.89,NNE,16,0.0,0.0,75,0.00,,,0.00,LWC V2.10 B1702,2013-09-14 14:43:00,
2013-09-14 10:48:00,67.4,59.2,29.89,NE,34,0.0,2.0,75,0.00,,,0.00,LWC V2.10 B1702,2013-09-14 14:48:00,
2013-09-14 10:53:00,67.3,59.1,29.89,NNW,343,0.0,1.0,75,0.00,,,0.00,LWC V2.10 B1702,2013-09-14 14:53:00,
2013-09-14 10:58:00,67.1,58.5,29.89,NNW,327,0.0,2.0,74,0.00,,,0.00,LWC V2.10 B1702,2013-09-14 14:58:00,
2013-09-14 11:03:00,67.0,58.8,29.89,NNW,338,2.0,3.0,75,0.00,,,0.00,LWC V2.10 B1702,2013-09-14 15:03:00,
2013-09-14 11:08:00,66.9,58.7,29.89,West,269,1.0,2.0,75,0.00,,,0.00,LWC V2.10 B1702,2013-09-14 15:08:00,
2013-09-14 11:13:00,66.8,58.2,29.89,West,273,1.0,2.0,74,0.00,,,0.00,LWC V2.10 B1702,2013-09-14 15:13:00,
2013-09-14 11:18:00,66.7,58.5,29.89,NNW,335,0.0,2.0,75,0.00,,,0.00,LWC V2.10 B1702,2013-09-14 15:18:00,
2013-09-14 11:23:00,66.8,59.7,29.89,NW,325,1.0,1.0,78,0.00,,,0.00,LWC V2.10 B1702,2013-09-14 15:23:00,
2013-09-14 11:28:00,67.3,59.5,29.89,NW,321,0.0,0.0,76,0.00,,,0.00,LWC V2.10 B1702,2013-09-14 15:28:00,
2013-09-14 11:33:00,67.7,58.7,29.89,WSW,254,0.0,0.0,73,0.00,,,0.00,LWC V2.10 B1702,2013-09-14 15:33:00,
2013-09-14 11:38:00,67.7,59.5,29.89,North,5,1.0,1.0,75,0.00,,,0.00,LWC V2.10 B1702,2013-09-14 15:38:00,
2013-09-14 11:43:00,67.9,60.4,29.89,West,263,1.0,3.0,77,0.00,,,0.00,LWC V2.10 B1702,2013-09-14 15:43:00,
2013-09-14 11:48:00,68.1,59.5,29.89,North,11,0.0,0.0,74,0.00,,,0.00,LWC V2.10 B1702,2013-09-14 15:48:00,
2013-09-14 11:53:00,68.5,60.6,29.89,North,355,0.0,1.0,76,0.00,,,0.00,LWC V2.10 B1702,2013-09-14 15:53:00,
2013-09-14 11:58:00,68.5,59.9,29.89,North,350,0.0,3.0,74,0.00,,,0.00,LWC V2.10 B1702,2013-09-14 15:58:00,
2013-09-14 12:03:00,69.2,60.2,29.89,West,260,0.0,0.0,73,0.00,,,0.00,LWC V2.10 B1702,2013-09-14 16:03:00,
2013-09-14 12:08:00,69.8,60.4,29.89,WNW,285,0.0,1.0,72,0.00,,,0.00,LWC V2.10 B1702,2013-09-14 16:08:00,
2013-09-14 12:13:00,69.9,59.7,29.89,NNW,346,0.0,2.0,70,0.00,,,0.00,LWC V2.10 B1702,2013-09-14 16:13:00,
2013-09-14 12:18:00,69.8,60.0,29.89,West,263,0.0,0.0,71,0.00,,,0.00,LWC V2.10 B1702,2013-09-14 16:18:00,
2013-09-14 12:23:00,69.5,59.7,29.89,NNE,17,1.0,3.0,71,0.00,,,0.00,LWC V2.10 B1702,2013-09-14 16:23:00,
2013-09-14 12:28:00,69.5,60.1,29.89,NNE,23,0.0,1.0,72,0.00,,,0.00,LWC V2.10 B1702,2013-09-14 16:28:00,
2013-09-14 12:33:00,69.5,60.1,29.89,NNE,28,0.0,2.0,72,0.00,,,0.00,LWC V2.10 B1702,2013-09-14 16:33:00,
2013-09-14 12:38:00,69.3,59.1,29.89,WNW,299,0.0,1.0,70,0.00,,,0.00,LWC V2.10 B1702,2013-09-14 16:38:00,
2013-09-14 12:43:00,69.3,59.5,29.90,WNW,295,0.0,0.0,71,0.00,,,0.00,LWC V2.10 B1702,2013-09-14 16:43:00,
2013-09-14 12:48:00,69.1,59.7,29.90,NW,325,0.0,0.0,72,0.00,,,0.00,LWC V2.10 B1702,2013-09-14 16:48:00,
2013-09-14 12:53:00,68.9,59.5,29.90,NW,323,0.0,1.0,72,0.00,,,0.00,LWC V2.10 B1702,2013-09-14 16:53:00,
2013-09-14 12:58:00,68.8,59.4,29.90,WNW,295,0.0,1.0,72,0.00,,,0.00,LWC V2.10 B1702,2013-09-14 16:58:00,
2013-09-14 13:03:00,68.8,59.4,29.90,WNW,289,0.0,0.0,72,0.00,,,0.00,LWC V2.10 B1702,2013-09-14 17:03:00,
2013-09-14 13:08:00,68.9,60.3,29.90,West,265,0.0,0.0,74,0.00,,,0.00,LWC V2.10 B1702,2013-09-14 17:08:00,
2013-09-14 13:13:00,69.0,60.0,29.90,WSW,258,0.0,1.0,73,0.00,,,0.00,LWC V2.10 B1702,2013-09-14 17:13:00,
2013-09-14 13:18:00,69.1,60.1,29.90,WSW,244,0.0,1.0,73,0.00,,,0.00,LWC V2.10 B1702,2013-09-14 17:18:00,
2013-09-14 13:23:00,69.1,58.9,29.89,SW,219,0.0,0.0,70,0.00,,,0.00,LWC V2.10 B1702,2013-09-14 17:23:00,
2013-09-14 13:28:00,69.3,59.5,29.90,NW,322,0.0,2.0,71,0.00,,,0.00,LWC V2.10 B1702,2013-09-14 17:28:00,
2013-09-14 13:33:00,69.7,59.1,29.90,WNW,302,0.0,2.0,69,0.00,,,0.00,LWC V2.10 B1702,2013-09-14 17:33:00,
2013-09-14 13:38:00,70.0,60.5,29.90,WNW,290,0.0,0.0,72,0.00,,,0.00,LWC V2.10 B1702,2013-09-14 17:38:00,
2013-09-14 13:43:00,69.9,59.3,29.90,North,355,1.0,4.0,69,0.00,,,0.00,LWC V2.10 B1702,2013-09-14 17:43:00,
2013-09-14 13:48:00,69.7,59.9,29.90,North,5,0.0,1.0,71,0.00,,,0.00,LWC V2.10 B1702,2013-09-14 17:48:00,
2013-09-14 13:53:00,70.0,59.3,29.90,NNW,346,0.0,0.0,69,0.00,,,0.00,LWC V2.10 B1702,2013-09-14 17:53:00,
2013-09-14 13:58:00,70.4,59.3,29.90,NNE,30,0.0,0.0,68,0.00,,,0.00,LWC V2.10 B1702,2013-09-14 17:58:00,
2013-09-14 14:03:00,70.7,58.8,29.90,NE,39,0.0,0.0,66,0.00,,,0.00,LWC V2.10 B1702,2013-09-14 18:03:00,
2013-09-14 14:08:00,70.7,59.2,29.90,North,355,2.0,2.0,67,0.00,,,0.00,LWC V2.10 B1702,2013-09-14 18:08:00,
2013-09-14 14:13:00,70.4,59.3,29.90,NNW,345,0.0,0.0,68,0.00,,,0.00,LWC V2.10 B1702,2013-09-14 18:13:00,
2013-09-14 14:18:00,70.2,59.9,29.90,WNW,301,0.0,0.0,70,0.00,,,0.00,LWC V2.10 B1702,2013-09-14 18:18:00,
2013-09-14 14:23:00,70.1,59.8,29.90,NNW,344,0.0,0.0,70,0.00,,,0.00,LWC V2.10 B1702,2013-09-14 18:23:00,
2013-09-14 14:28:00,69.8,58.7,29.90,NW,325,0.0,0.0,68,0.00,,,0.00,LWC V2.10 B1702,2013-09-14 18:28:00,
2013-09-14 14:33:00,69.6,59.0,29.90,NW,325,0.0,0.0,69,0.00,,,0.00,LWC V2.10 B1702,2013-09-14 18:33:00,
2013-09-14 14:38:00,69.5,59.7,29.90,NW,325,0.0,0.0,71,0.00,,,0.00,LWC V2.10 B1702,2013-09-14 18:38:00,
2013-09-14 14:43:00,69.4,60.4,29.90,WNW,293,0.0,0.0,73,0.00,,,0.00,LWC V2.10 B1702,2013-09-14 18:43:00,
2013-09-14 14:48:00,69.4,58.8,29.90,NNW,348,0.0,0.0,69,0.00,,,0.00,LWC V2.10 B1702,2013-09-14 18:48:00,
2013-09-14 14:53:00,69.7,59.1,29.90,WNW,292,0.0,0.0,69,0.00,,,0.00,LWC V2.10 B1702,2013-09-14 18:53:00,
2013-09-14 14:58:00,69.8,58.3,29.90,West,264,0.0,0.0,67,0.00,,,0.00,LWC V2.10 B1702,2013-09-14 18:58:00,
2013-09-14 15:03:00,69.6,58.6,29.90,NW,316,0.0,0.0,68,0.00,,,0.00,LWC V2.10 B1702,2013-09-14 19:03:00,
2013-09-14 15:08:00,69.4,58.8,29.90,WNW,299,0.0,0.0,69,0.00,,,0.00,LWC V2.10 B1702,2013-09-14 19:08:00,
2013-09-14 15:13:00,69.4,58.8,29.90,NNE,13,0.0,0.0,69,0.00,,,0.00,LWC V2.10 B1702,2013-09-14 19:13:00,
2013-09-14 15:18:00,69.3,59.5,29.90,NW,317,0.0,0.0,71,0.00,,,0.00,LWC V2.10 B1702,2013-09-14 19:18:00,
2013-09-14 15:23:00,69.0,59.6,29.90,NW,321,0.0,0.0,72,0.00,,,0.00,LWC V2.10 B1702,2013-09-14 19:23:00,
2013-09-14 15:28:00,68.7,59.7,29.90,NW,309,0.0,0.0,73,0.00,,,0.00,LWC V2.10 B1702,2013-09-14 19:28:00,
2013-09-14 15:33:00,68.6,58.8,29.90,WNW,302,0.0,1.0,71,0.00,,,0.00,LWC V2.10 B1702,2013-09-14 19:33:00,
2013-09-14 15:38:00,68.6,59.6,29.90,WNW,290,0.0,0.0,73,0.00,,,0.00,LWC V2.10 B1702,2013-09-14 19:38:00,
2013-09-14 15:43:00,68.8,60.2,29.90,West,267,0.0,1.0,74,0.00,,,0.00,LWC V2.10 B1702,2013-09-14 19:43:00,
2013-09-14 15:48:00,68.9,58.7,29.91,WSW,246,0.0,0.0,70,0.00,,,0.00,LWC V2.10 B1702,2013-09-14 19:48:00,
2013-09-14 15:53:00,69.0,59.6,29.91,South,181,0.0,0.0,72,0.00,,,0.00,LWC V2.10 B1702,2013-09-14 19:53:00,
2013-09-14 15:58:00,69.0,60.0,29.91,SSW,211,0.0,0.0,73,0.00,,,0.00,LWC V2.10 B1702,2013-09-14 19:58:00,
2013-09-14 16:03:00,68.9,59.5,29.91,NW,320,0.0,0.0,72,0.00,,,0.00,LWC V2.10 B1702,2013-09-14 20:03:00,
2013-09-14 16:08:00,68.9,58.3,29.91,NW,317,0.0,0.0,69,0.00,,,0.00,LWC V2.10 B1702,2013-09-14 20:08:00,
2013-09-14 16:13:00,69.0,59.2,29.91,NW,309,0.0,0.0,71,0.00,,,0.00,LWC V2.10 B1702,2013-09-14 20:13:00,
2013-09-14 16:18:00,68.9,58.7,29.91,NNW,336,0.0,0.0,70,0.00,,,0.00,LWC V2.10 B1702,2013-09-14 20:18:00,
2013-09-14 16:23:00,68.9,59.9,29.91,NNW,336,0.0,0.0,73,0.00,,,0.00,LWC V2.10 B1702,2013-09-14 20:23:00,
2013-09-14 16:28:00,68.9,59.9,29.91,NNW,340,0.0,0.0,73,0.00,,,0.00,LWC V2.10 B1702,2013-09-14 20:28:00,
2013-09-14 16:33:00,68.9,59.1,29.91,North,355,0.0,2.0,71,0.00,,,0.00,LWC V2.10 B1702,2013-09-14 20:33:00,
2013-09-14 16:38:00,69.0,59.6,29.91,NNE,30,0.0,0.0,72,0.00,,,0.00,LWC V2.10 B1702,2013-09-14 20:38:00,
2013-09-14 16:43:00,69.3,61.0,29.91,North,9,1.0,1.0,75,0.00,,,0.00,LWC V2.10 B1702,2013-09-14 20:43:00,
2013-09-14 16:48:00,69.3,59.5,29.92,NNW,348,0.0,2.0,71,0.00,,,0.00,LWC V2.10 B1702,2013-09-14 20:48:00,
2013-09-14 16:53:00,69.3,59.9,29.92,NNW,342,0.0,4.0,72,0.00,,,0.00,LWC V2.10 B1702,2013-09-14 20:53:00,
2013-09-14 16:58:00,69.2,59.0,29.92,NNW,340,0.0,1.0,70,0.00,,,0.00,LWC V2.10 B1702,2013-09-14 20:58:00,
2013-09-14 17:03:00,69.1,59.7,29.92,NNW,340,0.0,0.0,72,0.00,,,0.00,LWC V2.10 B1702,2013-09-14 21:03:00,
2013-09-14 17:08:00,69.0,61.1,29.92,NNW,327,0.0,0.0,76,0.00,,,0.00,LWC V2.10 B1702,2013-09-14 21:08:00,
2013-09-14 17:13:00,68.8,59.8,29.93,NNW,332,0.0,1.0,73,0.00,,,0.00,LWC V2.10 B1702,2013-09-14 21:13:00,
2013-09-14 17:18:00,68.6,59.6,29.93,NNW,341,0.0,0.0,73,0.00,,,0.00,LWC V2.10 B1702,2013-09-14 21:18:00,
2013-09-14 17:23:00,68.5,59.1,29.93,NNE,22,0.0,0.0,72,0.00,,,0.00,LWC V2.10 B1702,2013-09-14 21:23:00,
2013-09-14 17:28:00,68.4,59.0,29.93,NE,38,0.0,3.0,72,0.00,,,0.00,LWC V2.10 B1702,2013-09-14 21:28:00,
2013-09-14 17:33:00,68.2,58.4,29.93,NE,53,0.0,0.0,71,0.00,,,0.00,LWC V2.10 B1702,2013-09-14 21:33:00,
2013-09-14 17:38:00,68.1,58.7,29.94,NNW,336,0.0,1.0,72,0.00,,,0.00,LWC V2.10 B1702,2013-09-14 21:38:00,
2013-09-14 17:43:00,67.9,58.5,29.94,North,11,0.0,0.0,72,0.00,,,0.00,LWC V2.10 B1702,2013-09-14 21:43:00,
2013-09-14 17:48:00,67.7,58.3,29.94,North,0,0.0,0.0,72,0.00,,,0.00,LWC V2.10 B1702,2013-09-14 21:48:00,
2013-09-14 17:53:00,67.5,58.5,29.94,NNW,328,0.0,0.0,73,0.00,,,0.00,LWC V2.10 B1702,2013-09-14 21:53:00,
2013-09-14 17:58:00,67.3,58.0,29.94,NNW,337,1.0,2.0,72,0.00,,,0.00,LWC V2.10 B1702,2013-09-14 21:58:00,
2013-09-14 18:03:00,67.2,59.7,29.95,North,355,0.0,0.0,77,0.00,,,0.00,LWC V2.10 B1702,2013-09-14 22:03:00,
2013-09-14 18:08:00,67.3,59.8,29.95,NW,326,0.0,1.0,77,0.00,,,0.00,LWC V2.10 B1702,2013-09-14 22:08:00,
2013-09-14 18:13:00,67.2,59.0,29.95,NNW,329,0.0,0.0,75,0.00,,,0.00,LWC V2.10 B1702,2013-09-14 22:13:00,
2013-09-14 18:18:00,67.2,59.0,29.95,SW,229,0.0,0.0,75,0.00,,,0.00,LWC V2.10 B1702,2013-09-14 22:18:00,
2013-09-14 18:23:00,67.0,59.2,29.95,NNW,330,0.0,0.0,76,0.00,,,0.00,LWC V2.10 B1702,2013-09-14 22:23:00,
2013-09-14 18:28:00,66.9,59.1,29.95,NE,39,0.0,0.0,76,0.00,,,0.00,LWC V2.10 B1702,2013-09-14 22:28:00,
2013-09-14 18:33:00,66.6,59.5,29.96,NE,39,0.0,1.0,78,0.00,,,0.00,LWC V2.10 B1702,2013-09-14 22:33:00,
2013-09-14 18:38:00,66.4,59.7,29.96,NE,39,0.0,0.0,79,0.00,,,0.00,LWC V2.10 B1702,2013-09-14 22:38:00,
2013-09-14 18:43:00,66.6,59.9,29.96,NE,39,0.0,0.0,79,0.00,,,0.00,LWC V2.10 B1702,2013-09-14 22:43:00,
2013-09-14 18:48:00,66.7,59.3,29.96,NE,39,0.0,0.0,77,0.00,,,0.00,LWC V2.10 B1702,2013-09-14 22:48:00,
2013-09-14 18:49:00,66.7,59.3,29.96,NE,39,0.0,0.0,77,0.00,,,0.00,LWC V2.10 B1702,2013-09-14 22:49:00,
2013-09-14 18:54:00,66.4,58.6,29.96,NE,39,0.0,0.0,76,0.00,,,0.00,LWC V2.10 B1702,2013-09-14 22:54:00,
2013-09-14 18:59:00,66.0,58.2,29.97,NE,39,0.0,0.0,76,0.00,,,0.00,LWC V2.10 B1702,2013-09-14 22:59:00,
2013-09-14 19:04:00,65.5,57.7,29.97,NE,39,0.0,0.0,76,0.00,,,0.00,LWC V2.10 B1702,2013-09-14 23:04:00,
2013-09-14 19:09:00,65.0,57.2,29.97,NE,39,0.0,0.0,76,0.00,,,0.00,LWC V2.10 B1702,2013-09-14 23:09:00,
2013-09-14 19:14:00,64.4,57.0,29.97,NE,39,0.0,0.0,77,0.00,,,0.00,LWC V2.10 B1702,2013-09-14 23:14:00,
2013-09-14 19:19:00,63.8,56.4,29.98,NE,39,0.0,0.0,77,0.00,,,0.00,LWC V2.10 B1702,2013-09-14 23:19:00,
2013-09-14 19:24:00,63.4,56.8,29.98,NE,39,0.0,0.0,79,0.00,,,0.00,LWC V2.10 B1702,2013-09-14 23:24:00,
2013-09-14 19:29:00,63.0,56.7,29.98,NE,39,0.0,0.0,80,0.00,,,0.00,LWC V2.10 B1702,2013-09-14 23:29:00,
2013-09-14 19:34:00,62.6,56.7,29.98,NE,39,0.0,0.0,81,0.00,,,0.00,LWC V2.10 B1702,2013-09-14 23:34:00,
2013-09-14 19:39:00,62.2,56.3,29.98,NE,39,0.0,0.0,81,0.00,,,0.00,LWC V2.10 B1702,2013-09-14 23:39:00,
2013-09-14 19:44:00,61.9,56.3,29.99,NE,39,0.0,0.0,82,0.00,,,0.00,LWC V2.10 B1702,2013-09-14 23:44:00,
2013-09-14 19:49:00,61.5,56.3,29.99,NE,39,0.0,0.0,83,0.00,,,0.00,LWC V2.10 B1702,2013-09-14 23:49:00,
2013-09-14 19:54:00,61.2,56.3,29.99,NE,39,0.0,0.0,84,0.00,,,0.00,LWC V2.10 B1702,2013-09-14 23:54:00,
2013-09-14 19:59:00,60.9,56.0,29.99,NE,39,0.0,0.0,84,0.00,,,0.00,LWC V2.10 B1702,2013-09-14 23:59:00,
2013-09-14 20:04:00,60.8,56.3,29.99,NE,39,0.0,0.0,85,0.00,,,0.00,LWC V2.10 B1702,2013-09-15 00:04:00,
2013-09-14 20:09:00,60.7,56.5,29.99,NE,39,0.0,0.0,86,0.00,,,0.00,LWC V2.10 B1702,2013-09-15 00:09:00,
2013-09-14 20:14:00,60.6,56.4,30.00,NE,39,0.0,0.0,86,0.00,,,0.00,LWC V2.10 B1702,2013-09-15 00:14:00,
2013-09-14 20:19:00,60.6,56.4,30.00,NE,39,0.0,0.0,86,0.00,,,0.00,LWC V2.10 B1702,2013-09-15 00:19:00,
2013-09-14 20:24:00,60.6,56.4,30.00,NE,39,0.0,0.0,86,0.00,,,0.00,LWC V2.10 B1702,2013-09-15 00:24:00,
2013-09-14 20:29:00,60.7,56.5,30.00,NNE,18,0.0,0.0,86,0.00,,,0.00,LWC V2.10 B1702,2013-09-15 00:29:00,
2013-09-14 20:34:00,60.7,56.8,30.01,NNW,330,0.0,3.0,87,0.00,,,0.00,LWC V2.10 B1702,2013-09-15 00:34:00,
2013-09-14 20:39:00,60.8,56.9,30.01,North,355,1.0,1.0,87,0.00,,,0.00,LWC V2.10 B1702,2013-09-15 00:39:00,
2013-09-14 20:44:00,60.8,56.9,30.01,North,355,0.0,2.0,87,0.00,,,0.00,LWC V2.10 B1702,2013-09-15 00:44:00,
2013-09-14 20:49:00,60.9,56.7,30.01,NNW,338,0.0,0.0,86,0.00,,,0.00,LWC V2.10 B1702,2013-09-15 00:49:00,
2013-09-14 20:54:00,61.1,56.9,30.01,NNW,340,0.0,0.0,86,0.00,,,0.00,LWC V2.10 B1702,2013-09-15 00:54:00,
2013-09-14 20:59:00,61.2,57.0,30.01,North,355,0.0,0.0,86,0.00,,,0.00,LWC V2.10 B1702,2013-09-15 00:59:00,
2013-09-14 21:04:00,61.4,57.2,30.01,NNW,347,0.0,0.0,86,0.00,,,0.00,LWC V2.10 B1702,2013-09-15 01:04:00,
2013-09-14 21:09:00,61.6,57.0,30.01,North,355,0.0,1.0,85,0.00,,,0.00,LWC V2.10 B1702,2013-09-15 01:09:00,
2013-09-14 21:14:00,61.7,56.8,30.02,North,355,0.0,0.0,84,0.00,,,0.00,LWC V2.10 B1702,2013-09-15 01:14:00,
2013-09-14 21:19:00,61.8,56.9,30.02,North,355,0.0,0.0,84,0.00,,,0.00,LWC V2.10 B1702,2013-09-15 01:19:00,
2013-09-14 21:24:00,61.8,56.9,30.02,North,355,0.0,0.0,84,0.00,,,0.00,LWC V2.10 B1702,2013-09-15 01:24:00,
2013-09-14 21:29:00,61.9,57.0,30.02,North,355,0.0,1.0,84,0.00,,,0.00,LWC V2.10 B1702,2013-09-15 01:29:00,
2013-09-14 21:34:00,61.9,57.0,30.02,North,355,0.0,0.0,84,0.00,,,0.00,LWC V2.10 B1702,2013-09-15 01:34:00,
2013-09-14 21:39:00,61.9,57.0,30.02,NE,38,0.0,0.0,84,0.00,,,0.00,LWC V2.10 B1702,2013-09-15 01:39:00,
2013-09-14 21:44:00,62.0,57.1,30.03,NE,38,0.0,0.0,84,0.00,,,0.00,LWC V2.10 B1702,2013-09-15 01:44:00,
2013-09-14 21:49:00,62.1,56.9,30.03,NNE,26,0.0,2.0,83,0.00,,,0.00,LWC V2.10 B1702,2013-09-15 01:49:00,
2013-09-14 21:54:00,62.1,56.5,30.03,North,5,0.0,1.0,82,0.00,,,0.00,LWC V2.10 B1702,2013-09-15 01:54:00,
2013-09-14 21:59:00,62.2,56.3,30.03,NNE,13,0.0,0.0,81,0.00,,,0.00,LWC V2.10 B1702,2013-09-15 01:59:00,
2013-09-14 22:04:00,62.2,55.9,30.03,NNW,333,0.0,1.0,80,0.00,,,0.00,LWC V2.10 B1702,2013-09-15 02:04:00,
2013-09-14 22:09:00,62.3,56.0,30.03,North,349,0.0,3.0,80,0.00,,,0.00,LWC V2.10 B1702,2013-09-15 02:09:00,
2013-09-14 22:14:00,62.3,56.0,30.03,North,355,0.0,1.0,80,0.00,,,0.00,LWC V2.10 B1702,2013-09-15 02:14:00,
2013-09-14 22:19:00,62.2,55.9,30.03,North,355,0.0,0.0,80,0.00,,,0.00,LWC V2.10 B1702,2013-09-15 02:19:00,
2013-09-14 22:24:00,62.2,55.6,30.03,NE,40,0.0,3.0,79,0.00,,,0.00,LWC V2.10 B1702,2013-09-15 02:24:00,
2013-09-14 22:29:00,62.0,55.1,30.03,NNE,15,0.0,0.0,78,0.00,,,0.00,LWC V2.10 B1702,2013-09-15 02:29:00,
2013-09-14 22:34:00,61.9,55.3,30.03,NNE,15,0.0,0.0,79,0.00,,,0.00,LWC V2.10 B1702,2013-09-15 02:34:00,
2013-09-14 22:39:00,61.7,55.1,30.03,NNE,15,0.0,0.0,79,0.00,,,0.00,LWC V2.10 B1702,2013-09-15 02:39:00,
2013-09-14 22:44:00,61.5,54.9,30.03,NNE,15,0.0,0.0,79,0.00,,,0.00,LWC V2.10 B1702,2013-09-15 02:44:00,
2013-09-14 22:49:00,61.2,54.6,30.03,NNE,15,0.0,0.0,79,0.00,,,0.00,LWC V2.10 B1702,2013-09-15 02:49:00,
2013-09-14 22:54:00,61.0,54.4,30.04,NNE,12,0.0,0.0,79,0.00,,,0.00,LWC V2.10 B1702,2013-09-15 02:54:00,
2013-09-14 22:59:00,60.9,54.7,30.04,NNE,12,0.0,0.0,80,0.00,,,0.00,LWC V2.10 B1702,2013-09-15 02:59:00,
2013-09-14 23:04:00,60.6,54.4,30.04,NNE,12,0.0,0.0,80,0.00,,,0.00,LWC V2.10 B1702,2013-09-15 03:04:00,
2013-09-14 23:09:00,60.4,54.5,30.04,NNE,12,0.0,0.0,81,0.00,,,0.00,LWC V2.10 B1702,2013-09-15 03:09:00,
2013-09-14 23:14:00,60.1,54.2,30.04,NNE,12,0.0,0.0,81,0.00,,,0.00,LWC V2.10 B1702,2013-09-15 03:14:00,
2013-09-14 23:19:00,59.8,54.0,30.05,NNE,12,0.0,0.0,81,0.00,,,0.00,LWC V2.10 B1702,2013-09-15 03:19:00,
2013-09-14 23:24:00,59.5,54.0,30.05,NNE,12,0.0,0.0,82,0.00,,,0.00,LWC V2.10 B1702,2013-09-15 03:24:00,
2013-09-14 23:29:00,59.3,54.1,30.05,NNE,12,0.0,0.0,83,0.00,,,0.00,LWC V2.10 B1702,2013-09-15 03:29:00,
2013-09-14 23:34:00,59.1,53.9,30.04,NNE,12,0.0,0.0,83,0.00,,,0.00,LWC V2.10 B1702,2013-09-15 03:34:00,
2013-09-14 23:39:00,58.8,53.6,30.05,NNE,12,0.0,0.0,83,0.00,,,0.00,LWC V2.10 B1702,2013-09-15 03:39:00,
2013-09-14 23:44:00,58.6,53.5,30.05,NNE,12,0.0,0.0,83,0.00,,,0.00,LWC V2.10 B1702,2013-09-15 03:44:00,
2013-09-14 23:49:00,58.5,53.7,30.05,NNE,12,0.0,0.0,84,0.00,,,0.00,LWC V2.10 B1702,2013-09-15 03:49:00,
2013-09-14 23:54:00,58.3,53.5,30.05,NNE,12,0.0,0.0,84,0.00,,,0.00,LWC V2.10 B1702,2013-09-15 03:54:00,
2013-09-14 23:59:00,58.1,53.3,30.05,NNE,12,0.0,0.0,84,0.00,,,0.00,LWC V2.10 B1702,2013-09-15 03:59:00,